Showing default

FORMOSAT7-5/COSMIC2-5, 44358

Orbit data source: Space-Track

FORMOSAT7-5/COSMIC2-5, 44358 is a payload satellite owned by NSPO (TW) in LEO that was launched on Tue, 25 Jun 2019 UTC via an FALCON HEAVY launch vehicle from the Air Force Eastern Test Range (AFETR). Payload-class satellites include a variety of spacecraft equipped with specific instruments for various scientific and technological missions. These include communications satellites like Starlink; space stations such as the ISS; scientific satellites like the Hubble; Earth observation satellites from companies like Planet Labs, Umbra, and HawkEye 360; GPS; miniature CubeSats for education and research; and military/defense satellites.

Not visible in the next 10 days
Identifier
44358, 2019-036V
Orbit
LEO
Country
Flag of TWTW / TWN
Related business
Manufacturer
SSTL (Astrium)
Mission
Operational Civil Weather
Bus & Motor
SSTL-100, Unknown motor
Mass
278 kg wet, 278 kg dry
Launch date (UTC)
2019-06-25 (6 years ago)
Launch vehicle
FALCON HEAVY
Launch site
Air Force Eastern Test Range (AFETR)
Object type
Payload
Rocket body
Debris
Shape & HBR
Box + 1 Pan, 1.5 m
Radar Cross Section
2.189 m², Large (>1 m²)

Expand to show TLE details & history
Last TLE update: 17 hours ago

TLE from 17 hours ago
0 FORMOSAT7-5/COSMIC2-5
1 44358U 19036V   25286.58483851  .00005029  00000-0  38822-3 0  9990
2 44358  23.9980 132.3020 0000891 162.6224 197.4308 14.98183226345355
Epoch: 2025-10-13T14:02Z
TLE epoch observation values (Epoch: 2025-10-13T14:02:10.047Z)
Latitude
0.00001°
Longitude
-100.62536°
Altitude
570.988 km
Speed
7.578 km/s
True Right ascension
08h 49m 12s
True Declination
0° 00' 00"
Sunlit
Object was in daylight at epoch
Visualization orbit readout
Latitude
Unknown
Longitude
Unknown
Altitude
Unknown
Speed
Unknown
Apparent Right ascension
Unknown
Apparent Declination
Unknown
Sunlit
N/A
Visualization observer readout
Local Sidereal Time
01:26:16
Azimuth
Unknown
Elevation
Unknown
Doppler factor
Unknown
Orbital elements
Apogee altitude
577.9 km
Perigee altitude
576.661 km
Semi-major axis
6,955.418 km
Eccentricity
0.00009
Inclination
23.998°
RAAN
132.302°
Arg. of periapsis
162.6224°
True anomaly
197.42774°
Mean anomaly
197.4308°
Eccentric anomaly
197.42927°
Mean motion
3.74161 °/min
Orbital period
96.22 mins
BSTAR
0.00038822
Loading maneuver chart data...
Computing Atmospheric mass density...
Loading historical data...
Loading historical data...
Loading historical data...
Loading historical data...
Loading historical data...
Loading historical data...
Loading historical data...

Documentation

Showing up to 5 results
|